Regional Weather Roundup
Issued by NWS

Home | Current Version | Previous Version | Graphics & Text | Print | Product List | Glossary On
Versions: 1 2 3 4 5 6 7 8 9 10 11 12 13 14 15 16 17 18 19 20 21 22 23 24 25 26 27 28 29 30 31 32 33 34 35 36 37 38 39 40 41 42 43 44 45 46 47 48 49 50
000
ASUS43 KLOT 020858
RWRIL

ILLINOIS REGIONAL WEATHER ROUNDUP
NATIONAL WEATHER SERVICE CHICAGO/ROMEOVILLE IL
400 AM CDT TUE SEP 02 2014

NOTE: "FAIR" INDICATES FEW OR NO CLOUDS BELOW 12,000 FEET WITH NO
SIGNIFICANT WEATHER AND/OR OBSTRUCTIONS TO VISIBILITY.

* THESE STATIONS ARE NOT UNDER NWS QUALITY CONTROL. THEY ALSO MAY NOT
  REPORT WEATHER SUCH AS PRECIPITATION OR FOG.

ILZ001-002-007-009-015-016-024-021000-
NORTHWEST ILLINOIS

CITY           SKY/WX    TMP DP  RH WIND       PRES   REMARKS
MOLINE         MOCLDY    65  64  97 CALM      29.88S
$$

ILZ003-004-008-010-011-017-018-021000-
NORTH CENTRAL ILLINOIS

CITY           SKY/WX    TMP DP  RH WIND       PRES   REMARKS
ROCKFORD       PTCLDY    65  63  93 CALM      29.89R
$$

ILZ005-006-012>014-019>023-021000-
NORTHEAST ILLINOIS

CITY           SKY/WX    TMP DP  RH WIND       PRES   REMARKS
CHICAGO-OHARE  MOCLDY    69  64  84 W6        29.87S
CHICAGO-MIDWAY CLOUDY    71  68  90 W5        29.87R
AURORA         MOCLDY    65  62  90 SE3       29.88R FOG
WAUKEGAN       PTCLDY    66  64  93 CALM      29.86R
DUPAGE AIRPORT MOCLDY    66  65  96 S5        29.88R FOG
WHEELING       PTCLDY    70  66  87 NW3       29.88S
NORTHERLY ISL    N/A     72  66  81 W6          N/A
$$

LMZ740>746-021000-
SOUTHERN LAKE MICHIGAN

STATION/POSITION SKY/WX   TEMP    WIND        PRES    VSBY  WAVE
                          AIR SEA DIR/SP/G                  HT/PER
                          (F)     (DEG/KT/KT) (MB)    (MI)  (FT/S)
SOUTHERN BUOY              70 70  260/  6/  8 1010.6R         1/ 4
WAUKEGAN HARBOR            69     280/  5/  8   N/A
HARRISON CRIB              72     270/  8/  9   N/A
BURNHAM HARBOR             72     260/  5/  7   N/A
CALUMET HARBOR             71     270/  2/  6 1010.1R
MICHIGAN CITY              72     170/  8/ 11   N/A
MICHIGAN CITY 6N           72 72  280/  6/ 10   N/A           1/ 3
ST. JOSEPH                 72 72  290/  8/ 10   N/A           2/ 4
$$

ILZ025>027-034>036-040-047-049-050-058-095>099-021000-
WEST-CENTRAL ILLINOIS

CITY           SKY/WX    TMP DP  RH WIND       PRES   REMARKS
$$

ILZ028>032-037-038-041>044-048-051>054-059>061-021000-
CENTRAL ILLINOIS

CITY           SKY/WX    TMP DP  RH WIND       PRES   REMARKS
PEORIA         NOT AVBL
SPRINGFIELD    CLOUDY    71  69  93 S7        29.89F
TAYLORVILLE    NOT AVBL
$$

ILZ033-039-045-046-055>057-062-063-021000-
EAST-CENTRAL ILLINOIS

CITY           SKY/WX    TMP DP  RH WIND       PRES   REMARKS
CHAMPAIGN      LGT RAIN  70  68  94 S7        29.91F
MATTOON        LGT RAIN  67  66  97 S7        29.91F
$$

ILZ079-100>102-021000-
SOUTHWEST ILLINOIS

CITY           SKY/WX    TMP DP  RH WIND       PRES   REMARKS
$$

ILZ064>066-069>071-074>076-080>082-084>086-088>090-092>094-021000-
SOUTH-CENTRAL ILLINOIS

CITY           SKY/WX    TMP DP  RH WIND       PRES   REMARKS
CARBONDALE     CLOUDY    77  72  84 W5        29.94R
$$

ILZ067-068-072-073-078-083-087-091-021000-
SOUTHEAST ILLINOIS

CITY           SKY/WX    TMP DP  RH WIND       PRES   REMARKS
LAWRENCEVILLE  TSTM      67  67 100 N8        29.97R VSB 3/4
$$

ABBREVIATIONS USED IN REMARKS
   TC - TEMPERATURE IN CELSIUS
  WCI - WIND CHILL INDEX
   HX - HEAT INDEX
  VSB - VISIBILITY
$$




USA.gov is the U.S. government's official web portal to all federal, state and local government web resources and services.